Location: Chiroubles
(46.1812°N, 4.6660°E)
Time: 23:07:23
(UTC+00:00)

Vanguard 2 Rocket - Visible Passes

Search period start: 25 November 2020 00:00
Search period end: 05 December 2020 00:00
Orbit: 554 x 3326 km, 32.9° (Epoch: 25 November)

Date Brightness Start Highest point End Pass type
(mag) Time Alt. Az. Time Alt. Az. Time Alt. Az.
25 Nov 11.4 05:58:52 10° S 06:11:30 21° SE 06:22:55 10° ESE visible
26 Nov 11.5 05:01:52 10° SSE 05:10:41 15° SE 05:19:12 10° ESE visible
27 Nov 11.2 06:09:10 10° SSW 06:24:27 28° SSE 06:38:13 10° E visible
28 Nov 11.2 05:10:27 10° S 05:23:25 22° SE 05:36:02 10° E visible
29 Nov 11.3 04:13:35 10° SSE 04:22:41 15° SE 04:31:57 10° ESE visible
29 Nov 11.0 06:20:36 10° SSW 06:37:27 36° SSE 06:52:43 10° E visible
30 Nov 11.0 05:21:06 10° SSW 05:36:12 30° SE 05:51:07 10° E visible
01 Dec 11.0 04:22:41 10° S 04:35:15 23° SE 04:48:29 10° E visible
02 Dec 11.1 03:26:07 10° SSE 03:34:42 15° SE 03:43:55 10° ESE visible
02 Dec 10.8 05:32:47 10° SSW 05:49:02 37° SSE 06:05:30 10° E visible
03 Dec 10.8 04:33:37 10° SSW 04:47:53 30° SE 05:03:26 10° E visible
04 Dec 10.8 03:35:33 10° S 03:47:08 22° SE 04:00:18 10° E visible
04 Dec 10.6 05:45:07 10° SW 06:01:58 44° SSE 06:19:28 10° E visible
